Location: Bellflower
(33.8817°N, 118.1170°W)
Time: 23:11:44
(UTC+00:00)

Cosmos 2151 - Pass Details

Date: 23 November 2020
Orbit: 582 x 600 km, 82.5° (Epoch: 20 January)

Event Time Altitude Azimuth Distance (km) Brightness Sun altitude
Rises 12:34:55 0° 182° (S) 2,792 6.5 -24.2°
Reaches altitude 10° 12:37:06 10° 180° (S) 1,895 5.6 -23.8°
Maximum altitude 12:41:16 77° 95° (E) 602 3.0 -22.9°
Drops below altitude 10° 12:45:28 10° 10° (N) 1,904 5.5 -22.0°
Sets 12:47:40 0° 9° (N) 2,807 6.4 -21.6°
